Vertical_Velocity
2 1 0 1 1 -0 2 0 1 -0 -0 1 1 -1 1 2 2 0 -1 -1 1 1 -1 2 0 3 1 1 2 -1 -2 -1 -0 -1 0 -0 -1 -0 -2 -2 -2 1 -2
0 2 1 -1 -1 1 -2 -3 0 1 1 -0 1 -0 -1 -1 -1 -0 1 1 -0 0 -1 -3 1 3 3 4 5 0 0 -0 -3 -2 -2 -0 -0 -3 -0 -3 1 -3 -2
-1 3 3 -1 1 -1 1 1 1 -1 -2 1 -1 3 -1 0 1 1 1 1 2 -3 1 1 -0 2 2 2 5 -0 2 -1 -1 -1 1 0 -2 0 -0 -2 2 1 -4
-2 0 0 0 0 -1 1 -1 0 -0 -2 -1 1 0 -3 -0 -1 0 -1 0 1 0 1 0 1 -2 1 1 1 -1 -4 1 1 -2 -2 -1 3 1 1 -1 -3 3 -5
-4 -5 1 1 -2 -1 1 3 1 -1 1 -1 -1 2 4 -5 0 -2 -0 -1 1 1 1 2 3 1 0 -1 2 -3 0 -6 -3 1 1 -1 -1 1 -1 9 -0 -1 -5
-1 -1 1 6 3 -4 1 -4 -2 -0 1 2 1 -4 -6 2 -1 0 1 -2 -0 -1 1 -1 -0 -3 -0 -1 1 0 -0 -0 -1 -2 -4 1 -2 -0 0 0 2 5 4
3 0 3 3 5 -2 -2 1 3 2 -2 -4 0 -2 -0 -1 0 3 -1 -1 -3 -1 -1 2 3 1 2 1 2 -1 2 -2 -4 2 -2 -2 0 2 0 -4 -1 0 11
3 5 -2 5 2 12 3 -0 -2 -1 -3 -0 -2 -3 -6 1 0 -1 -2 -4 -4 -3 -4 -1 2 1 2 4 3 6 1 2 -1 -2 0 -4 -1 -2 1 3 2 -2 1
-1 8 3 6 6 10 11 9 -3 4 5 6 3 -8 1 2 -4 4 -3 1 -1 -0 -0 -2 -1 3 1 -2 -0 -2 1 1 0 -2 -1 -2 -4 -1 3 -5 -4 1 -1
1 7 -4 3 -13 2 -0 16 15 7 9 4 8 6 0 -1 -1 1 -3 -5 1 -0 -3 -2 -1 -3 -1 1 -1 -2 -3 -1 1 -5 -4 1 -4 -2 -4 -4 1 1 -1
7 8 -14 -26 1 12 7 -7 11 7 3 3 -1 -7 3 -5 -2 -2 -3 8 -6 1 -0 -5 -5 -1 0 1 4 -0 2 -4 1 1 -2 -1 1 0 -0 0 1 -0 -1
-13 -17 -27 -8 -13 0 3 -5 -1 3 -2 1 1 1 7 -3 -6 -0 -0 -2 -1 2 -3 0 0 -4 -3 -3 1 -3 -1 1 -0 4 -2 -3 -3 -1 -0 -0 11 3 2
-2 -2 -5 5 11 7 -11 1 -1 -1 -12 -5 -3 5 -3 2 1 3 1 -3 -1 3 -2 2 2 -0 -2 -2 1 1 -2 4 2 2 4 -3 -2 -1 -4 -6 -3 -3 1
6 -3 6 6 -3 -3 6 -0 -13 -3 -8 -8 -12 -9 -2 -1 -2 -1 2 3 -1 -4 -5 -4 -5 -1 -0 0 -2 7 -0 -5 -4 -1 -3 2 2 1 -2 -5 1 -5 1
1 3 6 4 5 3 4 -3 14 4 -2 1 -7 -6 0 -0 0 -1 -0 -1 0 -1 1 6 -1 -0 2 2 -4 2 3 -1 -1 0 -4 1 -2 2 -3 1 -2 -5 0
-5 2 1 1 3 4 3 -2 3 5 -4 -2 3 3 2 1 -1 -0 -3 -0 2 2 2 4 -1 -0 -2 -2 1 1 1 0 -1 1 -2 -1 -4 -1 0 1 1 -2 -2
-1 1 -0 7 3 2 -4 -0 2 2 3 1 2 -0 1 2 2 1 -0 -0 -2 2 -1 -1 -1 -5 -3 -2 6 -2 -1 -0 -2 -1 1 -1 0 -0 -2 2 -2 -0 -0
0 1 -1 7 0 -1 0 1 1 -3 -1 2 -1 -1 3 -0 -2 -2 -1 -1 1 -2 1 2 1 -1 -4 2 1 -0 4 3 3 2 -0 -3 -1 0 3 -0 -1 2 -2
2 3 6 5 1 1 -1 1 -1 2 2 -2 2 3 -2 -1 -1 1 -5 -3 -1 3 2 3 2 -1 -1 -0 -2 4 2 1 1 -1 -1 -1 4 -5 2 2 -1 2 1
-1 1 1 5 3 5 5 2 1 -0 -1 1 -1 -4 -0 -2 -3 2 -0 3 -2 -0 1 -2 -0 -0 -2 -1 1 1 0 1 0 -1 -2 -3 -1 1 0 0 -0 -1 2
1 1 0 3 5 0 -1 -5 -1 -0 -2 -3 -0 0 -2 2 4 6 -2 -4 3 -1 -1 0 2 -2 -1 0 -3 -1 2 3 1 -0 -1 -1 -1 -0 1 -2 5 -6 2
-2 3 1 0 5 4 2 5 2 -1 1 3 -3 -2 4 4 -2 -9 -4 -0 2 -1 -1 -1 -4 -1 -0 -3 -1 2 3 1 -0 -3 2 2 2 -3 -1 1 1 -2 -2
-2 -3 3 -1 -4 -1 3 3 3 -1 1 1 3 1 -6 -5 -0 2 1 -1 2 0 0 -0 1 -1 1 0 3 2 0 -1 1 -1 -0 -3 2 2 -0 -1 -0 -1 -2
-1 3 1 5 -3 -5 -1 -1 1 2 2 -0 -2 -4 1 3 0 -1 -0 -2 -1 -2 -2 -2 -1 0 0 2 2 2 -0 -1 1 -0 1 -2 0 -1 1 -2 -1 -1 -0
4 2 4 0 1 3 -1 8 1 0 -4 -3 2 1 2 -1 -3 2 -1 2 -2 -0 -1 -0 -1 1 0 -1 -2 0 -2 1 -1 1 -1 -0 0 -1 -0 0 -1 1 -1
2 5 4 0 -1 1 -2 -4 -1 2 6 4 -0 -2 9 -3 -3 -1 -1 -1 -4 -1 3 1 -0 -1 0 -0 0 -0 0 3 -0 1 0 0 -1 1 -1 -0 0 -1 -1
Height
1545 1547 1549 1550 1552 1553 1554 1555 1556 1557 1558 1559 1559 1560 1561 1561 1560 1560 1559 1558 1557 1556 1556 1555 1553 1553 1551 1549 1548 1547 1546 1545 1544 1544 1543 1543 1543 1543 1541 1540 1540 1539 1538
1544 1545 1547 1548 1550 1551 1551 1553 1554 1555 1556 1557 1558 1558 1559 1559 1560 1559 1559 1558 1556 1555 1553 1553 1551 1551 1551 1549 1548 1547 1545 1544 1543 1541 1541 1540 1540 1539 1540 1540 1538 1538 1538
1543 1544 1546 1546 1547 1548 1549 1550 1551 1552 1554 1555 1556 1558 1557 1558 1558 1558 1556 1556 1554 1552 1551 1550 1549 1549 1549 1548 1546 1545 1545 1543 1540 1539 1538 1538 1538 1538 1538 1539 1539 1537 1538
1540 1542 1544 1544 1545 1546 1547 1547 1548 1550 1551 1553 1555 1555 1555 1556 1556 1555 1555 1554 1552 1550 1549 1547 1546 1545 1545 1545 1544 1543 1543 1542 1540 1538 1537 1536 1535 1535 1535 1536 1537 1537 1537
1536 1539 1541 1541 1542 1543 1544 1544 1545 1547 1549 1550 1552 1553 1553 1553 1554 1552 1552 1550 1549 1547 1546 1544 1542 1542 1541 1542 1543 1541 1540 1539 1539 1537 1535 1534 1533 1532 1531 1532 1532 1534 1535
1533 1535 1537 1538 1538 1540 1541 1541 1542 1544 1546 1548 1548 1549 1550 1551 1549 1548 1546 1544 1544 1542 1542 1541 1539 1538 1538 1539 1540 1539 1539 1537 1536 1534 1532 1531 1530 1530 1529 1530 1530 1531 1530
1531 1530 1532 1534 1535 1536 1537 1536 1539 1541 1541 1544 1544 1546 1547 1547 1546 1544 1543 1541 1541 1540 1540 1540 1538 1537 1537 1536 1536 1537 1535 1534 1534 1533 1530 1529 1529 1528 1527 1527 1527 1528 1530
1526 1527 1528 1530 1531 1532 1532 1532 1534 1536 1538 1539 1541 1543 1545 1545 1542 1540 1540 1538 1538 1538 1538 1538 1537 1536 1537 1537 1536 1536 1534 1532 1530 1530 1528 1526 1525 1524 1525 1524 1523 1524 1525
1519 1520 1521 1525 1525 1526 1527 1527 1530 1531 1532 1533 1536 1539 1541 1540 1539 1538 1536 1534 1533 1534 1534 1535 1534 1534 1534 1534 1534 1535 1533 1531 1528 1527 1526 1524 1523 1522 1521 1521 1520 1520 1522
1513 1513 1515 1517 1512 1515 1519 1521 1524 1525 1527 1528 1531 1534 1536 1537 1537 1537 1532 1531 1531 1530 1530 1532 1531 1531 1532 1531 1531 1531 1530 1530 1526 1524 1523 1522 1521 1520 1518 1519 1517 1516 1517
1506 1506 1511 1515 1514 1511 1513 1516 1515 1520 1521 1525 1526 1528 1529 1530 1533 1533 1531 1529 1527 1525 1524 1525 1527 1528 1527 1527 1527 1526 1526 1526 1527 1523 1520 1518 1517 1518 1517 1517 1512 1513 1513
1501 1504 1510 1511 1511 1510 1509 1509 1512 1511 1514 1519 1522 1525 1523 1524 1528 1526 1525 1525 1525 1523 1520 1519 1520 1521 1523 1522 1522 1521 1522 1520 1523 1520 1518 1516 1514 1514 1513 1515 1512 1509 1510
1498 1499 1501 1504 1504 1503 1502 1504 1506 1509 1511 1514 1516 1519 1520 1521 1522 1522 1520 1520 1520 1518 1516 1515 1514 1514 1516 1518 1517 1517 1518 1517 1516 1517 1516 1513 1511 1509 1509 1511 1510 1509 1507
1494 1495 1497 1498 1497 1499 1499 1499 1502 1505 1507 1508 1511 1514 1516 1516 1517 1518 1516 1516 1515 1513 1513 1513 1509 1510 1510 1512 1512 1512 1512 1512 1512 1511 1512 1512 1508 1505 1505 1507 1507 1506 1506
1489 1490 1492 1493 1492 1492 1495 1497 1497 1497 1499 1502 1505 1510 1512 1511 1511 1511 1510 1510 1513 1511 1509 1508 1507 1508 1507 1505 1506 1509 1508 1507 1508 1506 1507 1507 1506 1503 1502 1502 1503 1503 1504
1484 1485 1485 1486 1487 1488 1492 1494 1495 1495 1496 1500 1502 1504 1505 1504 1503 1503 1504 1506 1504 1505 1503 1501 1503 1501 1505 1502 1501 1503 1503 1502 1503 1503 1503 1503 1501 1501 1499 1501 1500 1501 1501
1479 1479 1480 1481 1482 1484 1486 1490 1492 1492 1493 1495 1497 1499 1500 1498 1497 1497 1497 1498 1499 1500 1496 1497 1497 1497 1499 1498 1496 1497 1499 1498 1499 1499 1499 1498 1497 1497 1497 1497 1497 1498 1498
1473 1474 1476 1477 1479 1481 1483 1483 1486 1488 1490 1491 1492 1492 1494 1492 1492 1492 1492 1493 1492 1492 1493 1493 1493 1492 1494 1495 1493 1493 1493 1494 1494 1494 1495 1494 1493 1493 1494 1494 1494 1495 1495
1472 1471 1472 1472 1475 1477 1478 1480 1482 1483 1484 1486 1486 1485 1487 1486 1486 1484 1485 1487 1486 1485 1488 1489 1487 1488 1489 1491 1490 1490 1488 1490 1492 1490 1491 1490 1491 1490 1491 1491 1492 1492 1492
1468 1469 1470 1470 1472 1473 1473 1474 1477 1478 1481 1481 1480 1480 1482 1481 1480 1479 1479 1476 1479 1479 1481 1484 1485 1483 1487 1486 1485 1485 1487 1487 1487 1487 1488 1488 1488 1488 1489 1490 1488 1489 1489
1462 1465 1466 1469 1467 1468 1468 1471 1471 1474 1472 1477 1474 1474 1474 1476 1472 1470 1471 1472 1474 1473 1476 1478 1478 1480 1481 1481 1478 1482 1483 1483 1483 1485 1485 1484 1485 1485 1485 1486 1485 1486 1487
1460 1461 1460 1463 1465 1464 1464 1465 1465 1467 1469 1469 1468 1471 1468 1467 1466 1467 1468 1468 1468 1470 1470 1472 1474 1475 1474 1476 1477 1478 1478 1479 1480 1480 1481 1481 1482 1482 1483 1483 1482 1483 1485
1454 1456 1457 1454 1458 1460 1461 1460 1461 1462 1463 1463 1462 1461 1460 1462 1463 1462 1462 1464 1465 1465 1466 1469 1467 1468 1470 1472 1473 1473 1474 1477 1478 1478 1478 1478 1479 1478 1479 1480 1481 1481 1482
1447 1449 1449 1447 1449 1454 1456 1455 1457 1456 1455 1454 1454 1455 1456 1455 1456 1456 1457 1459 1461 1463 1461 1463 1463 1464 1465 1467 1469 1470 1471 1473 1474 1474 1475 1475 1476 1476 1477 1478 1479 1480 1481
1440 1439 1441 1441 1444 1445 1450 1449 1449 1448 1449 1451 1451 1449 1447 1447 1449 1450 1455 1456 1457 1459 1458 1457 1458 1459 1460 1462 1464 1465 1467 1470 1470 1470 1471 1472 1472 1473 1475 1476 1477 1478 1480
1435 1436 1435 1436 1438 1439 1441 1444 1444 1445 1445 1444 1444 1443 1442 1442 1446 1447 1451 1451 1453 1455 1454 1453 1454 1455 1456 1458 1460 1462 1464 1466 1467 1468 1468 1470 1470 1472 1473 1473 1474 1476 1478